Regional Weather Roundup
Issued by NWS

Home | Current Version | Previous Version | Graphics & Text | Print | Product List | Glossary On
Versions: 1 2 3 4 5 6 7 8 9 10 11 12 13 14 15 16 17 18 19 20 21 22 23 24 25 26 27 28 29 30 31 32 33 34 35 36 37 38 39 40 41 42 43 44 45 46 47 48 49 50
000
ASUS45 KBOU 010907
RWRCO

WEATHER ROUNDUP FOR COLORADO
NATIONAL WEATHER SERVICE DENVER/BOULDER CO
300 AM MDT FRI AUG 01 2014

NOTE: "FAIR" INDICATES FEW OR NO CLOUDS BELOW 12000 FEET WITH NO
SIGNIFICANT WEATHER AND/OR OBSTRUCTIONS TO VISIBILITY.

COZ001>005-013-030-031-011000-
...NORTHWEST COLORADO...

CITY           SKY/WX    TMP DP  RH WIND       PRES   REMARKS
CRAIG          MOCLDY    54  50  86 NE7       30.24S
HAYDEN         CLOUDY    59  45  58 E14       30.27S
MEEKER         MOCLDY    58  50  75 NE6       30.25S
MOUNT WERNER   NOT AVBL
STEAMBOAT SPGS MOCLDY    53  49  86 CALM      30.30S
WALDEN         PTCLDY    41  36  81 SE6       30.40S
$$

COZ006>008-011-011000-
...WEST CENTRAL VALLEYS...

CITY           SKY/WX    TMP DP  RH WIND       PRES   REMARKS
GRAND JUNCTION CLOUDY    69  50  50 NW15      30.14R
MONTROSE       MOCLDY    67  50  54 SE9       30.22F
EAGLE          MOCLDY    54  52  94 E7        30.31S
RIFLE          MOCLDY    64  51  62 E3        30.19S
DELTA          MOCLDY    69  52  55 CALM      30.18R
NUCLA          MOCLDY    64  52  63 E14       30.26F
$$

COZ017>023-064>068-011000-
...SOUTHWEST COLORADO...

CITY           SKY/WX    TMP DP  RH WIND       PRES   REMARKS
DURANGO        PTCLDY    58  51  78 NW3       30.31S
CORTEZ         CLEAR     65  51  60 N5        30.25F
PAGOSA SPRINGS PTCLDY    55  55  99 CALM      30.39F
TELLURIDE      CLOUDY    52  50  93 E5        30.49R
WOLF CREEK PAS NOT AVBL
$$

COZ009-010-012-014-032>034-037-058>063-011000-
...CENTRAL COLORADO...

CITY           SKY/WX    TMP DP  RH WIND       PRES   REMARKS
ASPEN          MOCLDY    52  49  89 SW5       30.34F
BUENA VISTA    MOCLDY    52  50  94 CALM      30.42F
COPPER MTN     MOCLDY    46  37  71 S21       30.63F
BERTHOUD PASS  FAIR      36  36 100 E12       30.68S
COTTONWOOD PAS MOCLDY    50  45  81 SW3       30.52F
GUNNISON       MOCLDY    52  46  82 N5        30.41R
KREMMLING      MOCLDY    52  45  76 CALM      30.38R
LEADVILLE      CLOUDY    46  45  96 CALM        N/A
MONARCH PASS   MOCLDY    41  37  87 CALM      30.74S
SALIDA         CLOUDY    56  55  96 CALM      30.48S
SUNLIGHT       MOCLDY    50  46  87 CALM      30.55S
WILKERSON PASS FOG       41  41 100 S6        30.63F VSB 3/4
$$

COZ069>075-011000-
...SAN LUIS VALLEY/SANGRE DE CRISTO MOUNTAINS...

CITY           SKY/WX    TMP DP  RH WIND       PRES   REMARKS
ALAMOSA        CLOUDY    54  50  86 CALM      30.38F
LA VETA PASS   NOT AVBL
SAGUACHE       CLOUDY    54  50  87 NW3       30.40F
$$

COZ035-036-038>040-011000-
...NORTHERN COLORADO FRONT RANGE...

CITY           SKY/WX    TMP DP  RH WIND       PRES   REMARKS
DENVER INTL AP PTCLDY    60  54  80 SW7       30.27S
DMNS CITY PARK   N/A     58  54  85 S5        30.27S
AURORA         PTCLDY    57  54  89 S6        30.29F
FRONT RANGE AP CLEAR     59  55  88 S7        30.28S
ERIE MUNI ARPT PTCLDY    55  52  92 CALM      30.26R
BOULDER MUN AP PTCLDY    63  45  51 W5        30.25S
CENTENNIAL     PTCLDY    56  53  90 SE6       30.30S
BROOMFIELD     PTCLDY    59  48  67 CALM      30.28S
FORT COLLINS   MOCLDY    61  52  72 CALM      30.26S
LONGMONT       MOCLDY    61  49  66 W6        30.26S
$$

COZ041-046-047-076>085-087-088-011000-
...PIKES PEAK/PALMER DIVIDE AND SOUTHERN FOOTHILLS...

CITY           SKY/WX    TMP DP  RH WIND       PRES   REMARKS
COLO. SPRINGS  PTCLDY    56  53  90 N6        30.33F
A. F. ACADEMY  PTCLDY    52  52 100 N6        30.34F
ELLICOTT       PTCLDY    54  52  93 CALM      30.31F
FALCON         PTCLDY    52  51  97 NW3       30.36F FOG
FORT CARSON    MOCLDY    57  56  94 NW5       30.30F
LIMON          PTCLDY    51  50  96 N6        30.29S
MONUMENT HILL  PTCLDY    50  50 100 S7        30.36F
TRINIDAD       CLOUDY    60  55  83 W7        30.29F
$$

COZ042>045-048>051-090-091-011000-
...NORTHEAST COLORADO...

CITY           SKY/WX    TMP DP  RH WIND       PRES   REMARKS
GREELEY ARPT   NOT AVBL
AKRON          CLEAR     61  55  81 W10       30.23S
BURLINGTON     CLEAR     59  52  77 W9        30.20F
WRAY             N/A     61  54  77 W7        30.18S
STERLING       CLEAR     59  57  94 CALM      30.19S
HOLYOKE        CLEAR     61  55  82 CALM      30.18S
FORT MORGAN    CLEAR     57  52  83 W6        30.23R
$$

COZ086-089-092>099-011000-
...SOUTHEAST COLORADO...

CITY           SKY/WX    TMP DP  RH WIND       PRES   REMARKS
PUEBLO         MOCLDY    64  61  90 CALM      30.24F
LA JUNTA       CLOUDY    63  60  90 N5        30.22F
LAMAR          CLEAR     59  56  89 W3        30.18F
SPRINGFIELD      N/A     58  56  93 SW6       30.23F
$$



USA.gov is the U.S. government's official web portal to all federal, state and local government web resources and services.